Date,TemperatureHighF,TemperatureAvgF,TemperatureLowF,DewpointHighF,DewpointAvgF,DewpointLowF,HumidityHigh,HumidityAvg,HumidityLow,PressureMaxIn,PressureMinIn,WindSpeedMaxMPH,WindSpeedAvgMPH,GustSpeedMaxMPH,PrecipitationSumIn
2012-1-1,79.0,67.3,60.1,66.9,62.3,57.8,98,85,53,30.27,30.13,10,2,10,0.01
2012-1-2,72.0,60.7,49.6,64.8,53.0,38.3,96,77,42,30.19,30.05,21,5,21,0.00
2012-1-3,49.6,43.8,38.7,39.3,23.2,11.7,87,47,25,30.37,30.17,26,7,26,0.00
2012-1-4,61.1,42.6,0.0,41.3,27.4,0.0,69,55,27,30.41,30.28,13,5,13,0.00
2012-1-5,65.5,52.0,36.1,47.8,40.8,30.3,87,67,39,30.32,30.18,15,3,15,0.00
2012-1-6,66.3,55.5,44.7,57.2,51.0,43.9,98,86,62,30.26,30.14,10,2,10,0.00
2012-1-7,72.2,60.6,49.0,57.1,53.2,47.3,94,78,51,30.22,30.12,12,2,12,0.00
2012-1-8,73.7,63.9,53.1,62.8,57.8,51.4,95,82,57,30.25,30.17,10,2,10,0.00
2012-1-9,75.3,66.4,59.2,64.3,60.5,56.8,94,82,63,30.23,30.08,17,2,17,0.00
2012-1-10,75.2,66.7,59.1,64.5,61.5,57.7,96,84,64,30.12,29.97,14,2,14,0.00
2012-1-11,75.1,69.6,60.6,67.8,64.8,58.7,94,85,73,29.98,29.79,27,5,27,0.00
2012-1-12,78.7,63.9,60.4,75.6,60.0,52.4,97,89,48,29.97,29.84,17,3,17,0.00
2012-1-13,68.6,61.0,51.1,59.2,47.3,36.4,95,62,39,30.20,29.98,14,5,14,0.00
2012-1-14,57.7,50.7,43.2,43.0,36.7,30.3,75,59,42,30.36,30.20,17,4,17,0.00
2012-1-15,64.5,53.9,38.8,49.3,39.7,32.7,86,61,35,30.45,30.34,23,5,23,0.00
2012-1-16,69.5,65.6,53.8,59.0,53.6,46.0,79,65,58,30.45,30.31,20,6,20,0.00
2012-1-17,74.0,66.2,56.6,65.5,60.6,54.6,94,82,68,30.31,30.15,17,2,17,0.00
2012-1-18,77.6,67.0,55.4,63.1,59.0,53.7,95,77,53,30.17,29.92,17,3,17,0.00
2012-1-19,69.0,62.2,53.9,61.3,52.4,43.4,93,73,41,30.16,30.00,19,4,19,0.00
2012-1-20,73.0,63.3,53.5,60.2,56.0,49.7,92,78,57,30.22,30.12,16,2,16,0.00
2012-1-21,75.2,65.7,55.9,62.5,59.6,54.7,97,82,58,30.16,30.03,19,3,19,0.00
2012-1-22,74.3,65.2,53.6,66.2,60.5,51.9,96,86,59,30.15,30.06,13,2,13,0.00
2012-1-23,76.7,69.7,63.2,69.1,65.7,61.5,97,88,74,30.14,30.07,19,3,19,0.01
2012-1-24,77.0,69.2,62.9,69.4,66.1,62.2,99,90,73,30.19,30.10,15,2,16,0.00
2012-1-25,75.9,71.8,67.1,68.4,66.6,65.2,96,84,71,30.19,30.09,18,5,18,0.01
2012-1-26,78.3,73.4,69.7,70.4,67.7,65.8,92,83,71,30.12,29.97,24,7,25,0.00
2012-1-27,77.8,71.5,66.9,69.8,66.6,63.2,96,85,66,30.06,29.92,27,6,27,0.00
2012-1-28,72.7,65.8,59.9,63.8,58.4,55.2,90,77,60,30.17,30.05,14,3,14,0.00
2012-1-29,70.4,64.8,59.7,60.3,57.2,51.8,85,77,64,30.28,30.15,22,6,22,0.00
2012-1-30,70.8,67.0,63.5,59.6,56.2,52.9,86,69,57,30.35,30.24,24,8,24,0.00
2012-1-31,73.0,68.9,66.0,60.3,57.6,55.3,76,67,56,30.36,30.25,18,6,18,0.00
2012-2-1,75.5,70.6,64.7,65.8,63.1,59.6,95,78,63,30.26,30.14,15,4,15,0.00
2012-2-2,76.7,70.7,61.5,70.1,66.6,60.5,99,87,72,30.17,30.08,13,3,13,0.00
2012-2-3,74.0,71.5,67.3,66.7,65.1,62.8,94,80,72,30.24,30.12,20,8,20,0.00
2012-2-4,76.3,72.5,70.7,67.8,65.8,63.7,89,80,69,30.19,30.08,20,7,20,0.00
2012-2-5,73.2,71.1,69.6,70.7,68.9,67.7,97,93,89,30.08,29.98,10,2,10,0.18
2012-2-6,74.2,69.4,67.0,72.8,67.7,64.9,97,94,88,30.09,29.97,18,2,18,0.64
2012-2-7,73.2,69.8,67.5,69.8,68.2,66.0,98,95,87,30.06,29.97,14,4,20,0.17
2012-2-8,73.7,68.4,65.9,68.1,63.8,55.8,96,86,66,30.07,29.99,18,7,21,0.00
2012-2-9,73.9,69.9,65.4,65.5,61.9,57.2,84,76,68,30.14,30.03,19,6,19,0.00
2012-2-10,76.8,72.0,66.3,70.8,68.3,64.8,96,88,79,30.08,29.87,20,5,23,0.01
2012-2-11,66.8,61.4,50.2,64.0,51.4,40.7,98,71,54,30.10,29.87,23,8,23,0.10
2012-2-12,52.7,45.9,37.5,41.1,35.0,24.4,84,66,48,30.31,30.10,25,9,25,0.00
2012-2-13,65.5,54.8,40.9,51.7,45.4,35.0,82,71,56,30.25,30.12,16,4,16,0.00
2012-2-14,75.3,65.6,55.1,61.3,56.4,49.5,87,73,50,30.15,30.05,20,4,20,0.00
2012-2-15,78.5,70.1,59.7,65.8,62.9,57.4,94,79,59,30.21,30.12,17,3,17,0.00
2012-2-16,78.7,70.6,64.2,68.0,65.6,62.3,95,85,67,30.19,30.06,16,4,16,0.00
2012-2-17,79.7,70.7,64.4,69.8,66.6,62.5,95,87,64,30.08,29.98,13,2,13,0.02
2012-2-18,75.5,70.6,64.6,69.6,67.1,63.8,98,89,79,30.03,29.90,13,3,13,0.00
2012-2-19,84.0,73.7,62.7,72.4,67.7,59.0,97,82,64,29.93,29.76,32,8,32,0.00
2012-2-20,67.8,61.2,55.0,59.0,55.2,52.4,95,81,63,30.20,29.93,21,6,21,0.00
2012-2-21,73.7,64.4,52.0,60.6,56.5,50.6,95,77,56,30.21,30.10,16,3,16,0.00
2012-2-22,80.7,69.6,59.6,67.7,62.2,57.0,94,79,51,30.11,29.91,17,3,17,0.00
2012-2-23,85.4,73.1,64.6,69.2,65.1,61.2,96,78,53,29.98,29.88,18,4,18,0.00
2012-2-24,88.7,74.9,64.3,70.2,65.4,61.0,98,75,45,30.02,29.92,23,5,23,0.00
2012-2-25,68.1,66.3,63.8,65.5,57.5,52.3,96,74,62,30.22,30.00,26,8,26,0.00
2012-2-26,71.6,68.8,66.9,67.8,62.5,56.4,95,81,68,30.29,30.21,22,8,22,0.06
2012-2-27,78.6,73.4,67.9,71.4,69.2,66.6,97,87,78,30.30,30.20,21,7,21,0.66
2012-2-28,76.6,71.4,66.0,71.1,68.3,65.3,99,91,74,30.27,30.19,16,3,16,0.06
2012-2-29,78.8,74.3,70.8,71.7,69.4,67.5,93,85,73,30.23,30.10,20,6,20,0.00
2012-3-1,85.2,74.3,68.1,73.1,69.4,66.9,97,85,58,30.12,29.98,17,3,17,0.01
2012-3-2,82.8,74.3,66.0,72.3,68.7,64.5,96,83,60,30.06,29.94,19,4,19,0.00
2012-3-3,87.8,76.3,67.8,71.3,66.9,59.4,96,75,39,29.97,29.80,26,5,26,0.00
2012-3-4,76.5,62.8,52.0,72.6,46.2,30.6,93,58,31,30.20,29.75,31,8,31,0.08
2012-3-5,67.5,58.9,49.6,50.4,40.5,32.5,84,52,33,30.36,30.20,18,4,18,0.00
2012-3-6,72.7,64.7,52.6,60.7,54.3,42.7,87,69,54,30.41,30.31,30,9,30,0.00
2012-3-7,74.8,70.1,0.0,65.9,59.2,0.0,88,67,62,30.38,30.29,23,10,24,0.00
2012-3-8,78.0,74.3,69.0,69.1,68.0,66.2,91,81,72,30.29,30.17,25,8,25,0.16
2012-3-9,78.9,73.3,67.5,71.6,69.1,66.4,98,87,76,30.21,30.07,18,5,18,0.25
2012-3-10,78.5,72.4,66.8,70.5,68.7,66.0,99,88,74,30.21,30.09,19,4,20,0.02
2012-3-11,72.2,69.9,67.6,68.8,66.6,64.0,97,89,79,30.30,30.17,26,8,26,0.92
2012-3-12,75.6,71.8,70.0,64.8,62.7,58.6,82,73,59,30.30,30.21,18,7,19,0.00
2012-3-13,76.0,71.5,66.4,63.5,61.5,59.4,86,71,63,30.25,30.17,14,3,14,0.00
2012-3-14,76.6,72.2,62.6,67.8,64.2,60.2,92,76,67,30.23,30.14,17,5,17,0.00
2012-3-15,77.8,72.6,66.6,69.1,66.6,63.7,92,82,69,30.25,30.14,23,5,23,0.32
2012-3-16,77.3,73.2,69.3,68.2,64.9,62.9,85,75,67,30.24,30.14,17,5,17,0.04
2012-3-17,76.7,72.7,62.6,65.5,63.1,56.6,93,73,62,30.24,30.15,18,4,18,0.00
2012-3-18,78.0,73.5,69.4,67.7,64.9,61.8,84,75,67,30.24,30.15,18,6,18,0.00
2012-3-19,77.1,73.5,70.0,65.1,62.6,60.3,78,69,60,30.18,30.09,17,5,17,0.00
2012-3-20,78.2,74.5,71.8,68.2,65.6,62.4,83,74,64,30.13,30.05,21,8,21,0.00
2012-3-21,78.3,74.6,68.0,70.2,68.5,64.8,95,81,71,30.16,30.05,27,9,30,0.63
2012-3-22,79.3,75.1,72.7,69.7,68.3,67.0,85,80,69,30.17,30.08,21,7,21,0.00
2012-3-23,78.7,73.9,66.8,68.1,66.2,62.8,94,77,62,30.13,30.03,15,5,17,0.00
2012-3-24,82.8,73.5,66.1,69.6,66.3,64.3,95,80,54,30.04,29.90,21,4,21,0.13
2012-3-25,82.8,73.0,66.5,71.9,63.9,52.9,96,76,44,29.94,29.77,25,6,28,0.45
2012-3-26,77.6,68.1,56.9,64.3,58.9,52.0,95,74,41,30.01,29.87,20,4,21,0.00
2012-3-27,77.8,73.0,64.3,66.9,64.2,62.0,94,75,60,30.19,29.99,18,5,18,0.00
2012-3-28,77.8,73.7,69.2,65.9,63.7,61.7,81,71,63,30.19,30.08,18,6,18,0.00
2012-3-29,80.3,71.0,61.8,67.1,63.5,56.2,95,78,47,30.09,29.98,14,3,14,0.00
2012-3-30,79.1,71.4,63.0,67.2,62.5,58.9,92,75,53,30.08,29.99,16,4,16,0.00
2012-3-31,86.1,72.5,63.4,68.7,64.8,60.4,91,78,51,30.02,29.83,28,4,28,0.00
2012-4-1,79.2,72.3,64.1,68.9,65.9,62.9,96,81,64,29.93,29.85,14,4,14,0.01
2012-4-2,81.7,72.7,63.9,71.2,67.3,62.9,98,84,61,29.93,29.84,11,2,12,0.00
2012-4-3,82.8,74.7,64.7,71.0,66.4,60.7,96,77,50,29.98,29.90,13,4,13,0.00
2012-4-4,89.3,77.7,65.8,71.7,65.3,58.7,91,68,37,29.97,29.79,19,4,19,0.00
2012-4-5,86.5,77.1,70.8,71.3,66.4,61.5,90,71,48,29.86,29.71,22,5,22,0.00
2012-4-6,87.2,74.4,67.6,70.1,65.4,59.4,97,76,41,29.94,29.72,27,8,27,0.00
2012-4-7,75.0,71.5,68.2,64.7,59.9,54.0,86,67,57,30.14,29.92,25,9,25,0.00
2012-4-8,74.9,71.0,68.4,58.8,56.3,54.1,68,60,50,30.18,30.08,17,5,17,0.00
2012-4-9,77.3,70.2,59.2,62.7,59.7,56.6,91,70,52,30.10,30.00,16,3,16,0.00
2012-4-10,81.7,71.8,60.7,64.6,60.9,58.1,93,70,47,30.08,29.97,19,3,19,0.00
2012-4-11,81.8,72.6,63.2,66.3,62.8,58.7,90,73,49,30.04,29.94,16,4,16,0.00
2012-4-12,79.9,73.1,63.5,68.3,63.9,56.5,92,74,48,30.07,29.95,21,7,21,0.00
2012-4-13,78.7,74.5,66.4,67.9,66.0,63.0,96,75,65,30.14,30.02,21,8,21,0.07
2012-4-14,76.5,72.8,66.6,66.5,62.7,60.0,96,71,65,30.25,30.10,25,9,26,0.39
2012-4-15,77.3,73.5,69.5,63.9,61.3,58.5,73,66,55,30.23,30.16,21,8,23,0.00
2012-4-16,79.3,75.1,72.3,68.7,63.2,57.5,77,67,52,30.22,30.12,23,8,23,0.00
2012-4-17,78.8,74.2,65.0,64.4,61.9,58.9,84,66,56,30.19,30.07,19,6,19,0.00
2012-4-18,79.7,74.7,67.8,68.5,66.0,63.5,90,75,62,30.09,29.96,22,6,22,0.00
2012-4-19,82.2,73.9,68.6,71.1,68.3,65.5,96,83,61,30.00,29.88,19,4,21,0.53
2012-4-20,85.5,74.4,65.4,72.8,69.2,62.0,98,85,54,29.93,29.83,21,4,40,0.30
2012-4-21,76.7,72.9,66.4,69.8,67.3,64.5,96,83,72,29.84,29.62,18,4,18,0.00
2012-4-22,80.8,72.4,62.9,70.2,64.4,60.2,96,77,56,29.71,29.52,31,7,31,0.12
2012-4-23,76.1,65.8,55.4,60.3,49.0,42.2,84,57,32,29.91,29.70,26,7,26,0.00
2012-4-24,69.8,61.6,53.1,48.9,43.0,31.8,77,53,27,30.04,29.88,20,4,20,0.00
2012-4-25,75.1,61.3,49.3,59.2,50.7,42.7,87,69,46,30.12,30.03,11,3,16,0.00
2012-4-26,79.5,65.8,58.1,64.8,58.2,54.3,88,77,53,30.15,30.05,16,3,20,0.00
2012-4-27,78.3,71.6,59.8,69.1,64.4,58.1,96,79,61,30.14,30.05,16,4,17,0.00
2012-4-28,80.5,76.3,71.5,73.9,71.7,69.1,95,86,78,30.10,30.04,17,5,17,0.00
2012-4-29,77.0,74.8,74.1,72.2,70.5,69.5,90,87,82,30.09,30.03,12,4,12,0.00
2012-4-30,79.3,77.5,75.4,72.2,70.6,68.5,85,80,75,30.11,30.04,24,9,24,0.00
2012-5-9,89.2,76.0,68.4,73.3,70.2,67.5,97,84,52,29.90,29.76,8,3,21,0.23
2012-5-10,80.5,75.5,69.9,72.1,70.6,69.0,98,85,72,29.91,29.77,9,4,19,0.01
2012-5-11,80.6,77.4,74.3,70.6,68.2,63.5,86,74,61,30.11,29.89,12,7,21,0.00
2012-5-12,80.3,77.1,74.7,69.8,67.1,64.1,81,71,63,30.19,30.08,11,8,23,0.00
2012-5-13,80.0,77.2,74.7,71.2,68.8,66.1,83,75,69,30.14,30.03,10,7,20,0.00
2012-5-14,83.3,78.1,73.5,74.5,72.7,71.0,93,84,72,30.05,29.94,9,3,17,0.00
2012-5-15,83.8,73.6,69.8,75.5,70.8,67.6,96,91,74,30.03,29.92,16,3,17,0.20
2012-5-16,81.8,74.8,68.5,73.9,70.9,67.4,98,88,73,30.01,29.92,12,2,12,0.13
2012-5-17,82.8,73.9,69.1,73.7,70.5,67.1,98,90,69,29.96,29.85,16,3,16,0.38
2012-5-18,81.0,75.0,68.3,73.0,70.0,67.2,97,85,68,29.94,29.86,16,4,16,0.00
2012-5-19,81.5,74.5,68.3,73.5,70.2,67.1,96,87,72,29.99,29.89,20,3,20,0.27
2012-5-20,81.0,75.9,69.2,73.2,70.0,65.3,97,83,71,29.98,29.91,18,5,18,0.01
2012-5-21,85.2,76.5,67.9,68.6,64.9,55.8,90,69,38,29.99,29.91,16,3,16,0.00
2012-5-22,86.0,76.5,67.1,76.3,70.5,64.7,93,82,65,29.96,29.87,21,4,21,1.07
2012-5-23,84.5,77.4,70.0,74.8,72.1,68.9,97,84,66,29.92,29.86,19,5,19,0.00
2012-5-24,82.8,77.4,71.6,75.9,73.2,69.8,95,87,77,29.90,29.84,17,4,17,0.00
2012-5-25,83.3,78.2,71.2,75.9,73.6,70.4,98,86,70,30.03,29.89,18,4,18,0.00
2012-5-26,84.3,78.7,71.9,75.0,72.2,69.0,98,81,61,30.04,29.93,16,4,16,0.00
2012-5-27,88.9,76.8,69.6,72.2,69.5,67.0,96,80,51,29.93,29.80,22,5,23,0.56
2012-5-28,88.7,79.2,72.8,77.2,73.8,70.3,96,85,57,29.96,29.85,23,5,23,0.83
2012-5-29,90.8,80.6,72.2,77.9,73.4,69.4,94,80,53,29.96,29.86,20,4,20,0.42
2012-5-30,91.7,79.0,69.0,76.1,72.5,67.3,97,83,52,29.91,29.77,30,4,30,1.79
2012-5-31,88.4,78.4,69.9,77.0,73.4,68.8,98,85,60,29.94,29.84,15,3,15,0.09
2012-6-1,83.4,74.7,70.6,75.4,72.5,69.7,99,93,74,29.96,29.85,12,2,18,3.27
2012-6-2,90.7,79.5,72.0,75.1,72.5,67.9,99,82,49,29.95,29.86,18,5,18,0.03
2012-6-3,89.7,81.4,74.8,71.2,67.3,58.9,87,63,48,30.03,29.87,17,5,17,0.00
2012-6-4,91.5,81.7,71.4,76.8,71.1,66.3,92,72,45,29.98,29.83,20,5,20,0.00
2012-6-5,88.8,80.8,75.6,76.8,74.1,70.1,96,81,59,29.89,29.78,20,6,20,0.00
2012-6-6,85.5,77.5,68.4,77.4,72.5,65.7,92,85,72,29.93,29.84,30,3,33,0.07
2012-6-7,84.9,79.4,73.3,79.2,76.1,71.7,98,90,75,29.97,29.90,15,2,16,0.27
2012-6-8,85.2,76.3,73.1,77.4,74.0,72.4,99,93,73,29.98,29.89,13,1,13,0.27
2012-6-9,84.7,78.0,71.7,78.0,74.5,70.8,99,90,76,30.04,29.94,21,3,21,0.11
2012-6-10,85.9,81.3,75.7,79.4,77.0,74.5,98,87,77,30.14,29.98,19,5,19,0.00
2012-6-11,83.8,80.5,77.6,75.7,72.9,69.5,91,78,67,30.12,30.04,17,5,17,0.02
2012-6-12,83.5,79.3,74.3,70.8,69.7,67.9,84,73,61,30.08,29.95,15,4,15,0.00
2012-6-13,88.0,80.7,70.8,75.4,72.2,68.2,94,76,61,29.98,29.87,14,4,18,0.23
2012-6-14,85.9,80.4,70.3,76.8,74.4,69.4,98,83,69,29.98,29.88,13,4,16,0.16
2012-6-15,83.6,78.2,72.2,76.3,73.4,69.0,99,86,64,30.02,29.91,20,5,20,0.07
2012-6-16,83.1,78.5,0.0,73.3,71.1,0.0,97,78,66,30.05,29.96,18,7,21,0.04
2012-6-17,82.5,79.5,76.6,70.6,68.8,67.1,81,70,63,30.05,29.95,18,6,18,0.00
2012-6-18,83.0,79.3,73.2,70.4,68.4,65.9,88,69,62,30.05,29.95,18,6,18,0.00
2012-6-19,83.3,80.2,77.5,72.4,69.4,66.0,77,70,58,30.07,30.00,23,9,23,0.00
2012-6-20,82.7,78.1,74.8,76.7,74.0,70.2,96,88,75,30.02,29.96,25,6,25,0.58
2012-6-21,84.5,80.5,76.0,78.0,75.5,73.7,93,85,78,29.99,29.88,20,6,20,0.00
2012-6-22,84.8,79.4,75.3,77.9,75.5,73.8,97,88,77,29.93,29.84,19,4,19,0.01
2012-6-23,82.5,77.9,73.4,78.1,75.1,70.8,98,91,76,29.99,29.86,16,3,16,0.04
2012-6-24,81.8,78.0,73.3,79.1,75.3,71.5,95,92,83,29.98,29.81,26,7,26,0.51
2012-6-25,82.4,80.6,79.2,77.5,76.0,75.0,94,86,79,29.82,29.77,27,7,27,0.05
2012-6-26,87.3,82.0,77.1,77.3,75.9,74.1,94,82,67,29.72,29.63,37,10,37,0.15
2012-6-27,87.7,79.9,74.6,77.0,74.2,69.6,96,83,66,29.99,29.67,27,10,27,0.11
2012-6-28,82.8,76.2,69.9,72.3,69.3,66.9,94,80,63,30.07,29.98,15,3,16,0.00
2012-6-29,90.0,79.3,69.7,75.2,71.3,67.2,98,78,51,30.04,29.93,13,3,13,0.00
2012-6-30,91.4,81.4,72.7,78.1,73.6,70.6,94,79,53,30.01,29.92,16,3,16,0.00
2012-7-1,89.0,81.2,72.6,77.8,74.3,70.3,94,80,61,30.07,29.97,17,3,17,0.00
2012-7-2,90.3,81.6,74.6,79.0,74.7,68.8,96,80,65,30.09,29.98,17,3,17,0.00
2012-7-3,88.5,80.4,72.9,77.7,73.8,68.8,95,81,63,30.07,29.98,15,3,16,0.00
2012-7-4,88.6,82.1,75.3,78.5,75.5,70.4,96,81,59,30.08,30.01,18,4,18,0.00
2012-7-5,87.0,80.9,72.3,78.2,74.2,70.2,94,81,68,30.07,29.97,16,3,16,0.00
2012-7-6,88.1,82.0,74.9,77.8,75.2,71.8,94,80,66,30.06,30.00,18,4,18,0.00
2012-7-7,87.3,81.8,73.7,78.7,75.9,72.5,96,83,68,30.09,30.03,16,4,16,0.00
2012-7-8,86.7,81.8,75.2,79.3,76.6,73.9,96,85,74,30.09,30.01,16,4,16,0.00
2012-7-9,87.6,81.4,74.4,78.7,75.4,72.9,96,83,68,30.05,29.97,19,3,19,0.00
2012-7-10,88.0,81.6,74.2,78.8,75.8,72.6,97,83,62,30.04,29.95,19,4,19,0.00
2012-7-11,85.9,78.6,75.7,77.8,74.6,71.5,94,88,75,30.06,29.91,18,2,18,0.28
2012-7-12,85.7,77.3,72.3,77.4,73.5,70.8,98,88,74,30.03,29.96,19,2,19,0.14
2012-7-13,86.3,81.2,74.2,78.2,75.4,72.9,97,83,71,30.08,29.99,19,5,20,0.02
2012-7-14,86.8,82.5,77.4,77.8,75.8,73.3,93,81,71,30.10,30.00,19,6,19,0.00
2012-7-15,84.5,78.9,72.2,77.0,74.5,70.7,95,86,74,30.12,30.03,18,2,21,0.16
2012-7-16,81.6,76.0,71.5,75.9,73.0,70.2,98,91,75,30.08,29.97,14,3,14,0.15
2012-7-17,85.4,75.9,71.3,77.1,73.4,70.7,98,93,72,30.03,29.97,17,2,22,0.41
2012-7-18,90.1,80.1,73.3,78.7,75.1,72.1,97,85,62,30.13,29.99,21,3,21,0.17
2012-7-19,88.3,82.5,76.7,80.1,77.3,74.9,97,85,71,30.17,30.09,21,5,21,0.00
2012-7-20,87.2,81.7,73.9,79.4,76.8,72.8,98,86,73,30.12,30.04,19,4,19,0.00
2012-7-21,88.0,83.5,79.3,79.4,77.9,75.5,93,84,70,30.11,30.03,20,5,20,0.00
2012-7-22,87.0,80.1,74.4,80.8,77.0,72.1,97,90,77,30.16,30.05,36,4,36,0.33
2012-7-23,85.7,78.7,74.0,77.0,74.6,70.6,98,88,71,30.18,30.10,31,4,31,0.01
2012-7-24,89.9,81.3,74.6,82.1,76.2,72.2,98,85,67,30.14,30.01,16,2,16,0.01
2012-7-25,93.0,82.8,74.3,80.7,76.2,71.7,94,81,56,30.03,29.96,16,3,16,0.00
2012-7-26,90.6,82.3,75.3,79.7,76.4,73.8,96,83,60,30.04,29.96,18,4,18,0.00
2012-7-27,88.8,81.5,76.3,78.9,75.8,70.8,95,83,69,30.09,29.98,17,4,17,0.00
2012-7-28,90.5,82.3,74.8,78.5,75.9,73.2,96,82,64,30.10,30.02,21,4,21,0.00
2012-7-29,89.6,82.8,75.5,78.2,75.5,73.7,95,79,65,30.08,29.98,19,4,19,0.00
2012-7-30,90.8,82.4,75.5,78.1,74.4,70.8,93,78,57,30.05,29.97,17,3,17,0.00
2012-7-31,89.6,79.9,72.1,77.1,73.9,70.9,97,83,64,30.04,29.95,18,3,18,0.06
2012-8-1,93.7,80.8,73.6,79.0,74.6,71.8,95,83,52,30.01,29.92,16,3,16,0.21
2012-8-2,91.0,82.1,74.5,78.9,75.8,72.5,96,82,59,30.00,29.91,19,3,19,0.00
2012-8-3,88.0,81.2,76.4,79.3,76.1,72.5,93,85,71,30.03,29.91,25,3,26,0.00
2012-8-4,86.5,81.6,75.2,78.6,76.5,74.3,98,85,73,30.06,29.95,17,5,17,0.00
2012-8-5,86.7,82.9,79.3,79.3,77.5,74.7,92,84,76,30.10,30.02,17,5,17,0.00
2012-8-6,86.8,80.6,74.1,78.4,75.7,72.7,97,86,70,30.08,29.98,20,5,20,0.06
2012-8-7,88.3,81.5,74.3,80.9,77.1,73.0,97,87,72,30.04,29.97,19,4,20,0.01
2012-8-8,88.8,82.6,76.3,79.7,76.8,73.8,96,83,67,30.05,29.97,22,4,22,0.00
2012-8-9,88.3,82.9,75.9,80.3,77.3,74.4,96,84,72,30.02,29.93,18,4,18,0.00
2012-8-10,88.1,81.9,75.8,78.9,75.8,72.5,96,82,62,29.99,29.92,18,4,18,0.00
2012-8-11,86.9,80.1,75.5,78.4,75.1,73.1,95,85,72,30.01,29.92,18,3,18,0.00
2012-8-12,88.5,78.3,74.2,78.4,75.3,73.3,98,91,69,30.05,29.96,12,2,12,0.31
2012-8-13,88.5,80.5,73.6,79.0,75.9,72.7,98,86,67,30.08,29.99,13,2,13,0.01
2012-8-14,87.0,81.1,74.7,80.3,76.7,70.7,96,87,73,30.06,29.95,20,2,20,0.47
2012-8-15,92.7,84.7,74.4,79.5,77.5,73.5,98,80,57,30.04,29.97,18,4,18,0.00
2012-8-16,91.2,81.8,76.7,80.4,77.2,74.4,97,87,66,30.07,29.98,17,2,17,0.13
2012-8-17,90.5,79.0,74.3,79.2,75.4,71.8,97,90,65,30.04,29.94,9,2,26,0.12
2012-8-18,90.2,77.6,71.3,78.9,75.1,70.1,98,92,64,30.00,29.90,13,2,41,0.62
2012-8-19,93.2,82.1,74.8,78.6,75.5,72.8,97,82,55,30.00,29.89,8,3,18,0.20
2012-8-20,91.5,80.9,75.5,79.1,76.0,72.6,97,86,61,30.01,29.89,10,4,24,0.04
2012-8-21,90.4,78.7,72.2,79.4,74.6,71.1,98,88,65,30.09,29.96,10,4,32,0.69
2012-8-22,90.5,76.7,72.4,80.1,72.2,68.2,98,86,64,30.09,30.01,16,2,20,0.14
2012-8-23,87.8,79.3,72.3,79.2,74.7,69.9,97,86,72,30.08,30.03,13,2,13,0.00
2012-8-24,85.5,82.0,74.1,78.6,76.1,70.3,98,83,70,30.06,29.94,21,6,21,0.23
2012-8-25,83.1,79.3,73.2,78.6,75.7,69.9,95,89,81,30.06,29.92,31,8,31,1.67
2012-8-26,82.9,79.4,74.6,78.3,76.5,72.6,97,91,82,29.94,29.81,28,10,29,1.54
2012-8-27,82.1,78.0,73.4,79.3,76.7,72.8,100,96,85,29.94,29.80,32,9,41,7.47
2012-8-28,90.7,80.8,76.5,81.1,76.8,73.9,94,88,69,30.01,29.91,22,4,22,0.02
2012-8-29,87.7,80.1,76.2,79.6,77.3,74.6,98,91,73,30.00,29.92,16,3,18,0.00
2012-8-30,87.7,82.4,76.6,79.4,77.4,75.4,97,85,69,30.11,29.95,16,3,16,0.00
2012-8-31,86.2,82.1,77.1,79.7,78.3,76.2,98,89,77,30.16,30.07,16,4,16,0.01
2012-9-1,85.8,82.3,78.1,78.3,76.1,70.1,96,82,72,30.14,30.04,19,5,19,0.00
2012-9-2,85.3,81.0,74.6,73.0,71.0,66.8,92,72,62,30.07,29.98,16,4,16,0.00
2012-9-3,86.5,79.7,71.2,75.5,72.4,69.6,97,80,60,30.05,29.97,13,2,13,0.00
2012-9-4,85.8,77.8,71.8,77.6,73.4,69.6,95,87,67,30.04,29.93,23,2,23,0.01
2012-9-5,89.8,77.7,71.6,77.8,73.1,69.6,97,87,63,30.00,29.91,19,3,20,0.36
2012-9-6,86.8,77.3,70.9,78.7,73.6,70.3,98,89,73,30.02,29.94,22,3,23,1.35
2012-9-7,88.8,80.6,70.4,78.6,74.8,69.8,99,83,65,30.00,29.90,20,4,20,0.03
2012-9-8,91.7,83.7,72.9,78.3,75.1,71.7,98,77,57,29.97,29.86,15,4,15,0.01
2012-9-9,90.0,81.8,75.0,77.9,75.5,73.2,97,82,62,29.96,29.85,29,6,29,0.00
2012-9-10,87.8,78.2,73.2,78.9,75.2,71.2,98,91,70,30.01,29.90,11,2,11,0.06
2012-9-11,85.6,79.2,73.2,77.5,74.9,72.6,99,87,70,30.09,29.97,21,5,21,0.68
2012-9-12,84.9,81.4,77.2,76.9,74.7,72.5,94,80,73,30.10,30.02,25,8,25,0.06
2012-9-13,86.0,82.6,79.4,76.8,75.0,72.8,88,78,71,30.09,30.00,21,6,21,0.00
2012-9-14,84.5,80.4,75.5,78.1,75.7,73.8,97,86,76,30.05,29.97,18,4,18,0.40
2012-9-15,83.8,79.8,75.4,76.1,74.4,72.8,93,84,76,30.06,29.99,10,4,20,0.00
2012-9-16,85.3,79.0,73.9,76.7,74.4,71.6,96,86,71,30.05,29.97,16,3,16,0.47
2012-9-17,85.5,80.4,75.9,77.5,75.2,73.0,93,84,74,30.02,29.91,22,4,22,0.00
2012-9-18,89.5,77.4,72.7,77.9,74.2,70.2,98,90,66,29.97,29.89,26,3,28,0.58
2012-9-19,90.0,78.2,73.3,76.8,73.7,71.3,98,87,58,30.04,29.91,15,3,15,0.45
2012-9-20,84.2,77.9,71.3,77.8,74.5,70.6,98,90,75,30.02,29.93,13,2,13,0.02
2012-9-21,85.0,77.5,72.9,78.7,75.1,71.8,98,93,77,30.01,29.91,24,3,24,0.93
2012-9-22,82.3,76.7,73.1,76.6,74.4,72.2,99,93,77,30.01,29.93,17,1,17,0.12
2012-9-23,86.3,79.7,72.7,74.8,72.6,66.1,99,80,53,30.05,29.98,16,4,16,0.01
2012-9-24,83.0,77.6,73.1,74.3,71.3,67.3,97,82,65,30.07,29.99,16,4,16,0.00
2012-9-25,83.8,76.8,70.6,73.1,69.5,65.2,92,79,57,30.08,30.00,13,2,13,0.00
2012-9-26,84.3,79.6,72.2,78.2,75.5,70.3,95,87,78,30.09,30.01,13,3,13,0.00
2012-9-27,85.3,80.4,75.8,78.9,76.4,73.9,98,88,76,30.09,30.00,16,4,16,0.00
2012-9-28,85.5,80.0,74.4,77.4,75.3,73.2,97,86,74,30.03,29.93,18,3,18,0.00
2012-9-29,85.5,78.4,73.7,77.9,74.9,70.5,98,89,73,29.97,29.85,14,2,14,0.02
2012-9-30,75.2,74.4,73.9,74.0,73.4,72.8,98,97,96,29.89,29.84,3,0,3,0.00
2012-10-13,82.1,79.6,77.4,72.8,68.9,66.5,81,70,63,30.14,30.06,13,10,26,0.00
2012-10-14,84.1,80.2,74.9,76.0,73.2,68.9,98,80,71,30.07,29.97,11,8,24,0.41
2012-10-15,83.7,80.0,74.1,75.7,74.2,72.3,99,83,73,29.94,29.79,7,4,14,0.56
2012-10-16,82.6,77.0,70.4,73.4,71.5,69.5,97,84,71,29.85,29.77,8,3,17,0.00
2012-10-17,83.3,75.0,70.9,74.3,71.1,67.5,96,88,72,29.88,29.81,6,2,20,0.10
2012-10-18,83.1,75.3,69.8,76.9,73.4,69.2,99,94,81,29.88,29.81,7,1,29,1.05
2012-10-19,87.6,77.8,71.2,77.1,74.1,70.3,97,89,62,29.88,29.79,10,2,13,0.01
2012-10-20,79.7,74.5,66.9,71.9,64.5,57.9,98,73,51,29.94,29.82,17,4,17,0.00
2012-10-21,80.8,73.9,62.6,65.7,62.2,58.0,90,69,50,30.02,29.92,16,5,16,0.00
2012-10-22,82.0,79.1,77.0,68.4,66.1,63.4,70,64,57,30.05,29.98,22,9,22,0.00
2012-10-23,80.7,77.6,72.9,72.8,69.3,63.7,94,76,63,30.02,29.95,24,8,24,0.18
2012-10-24,82.8,79.1,74.1,73.8,71.4,69.2,92,77,65,29.98,29.87,25,9,25,0.06
2012-10-25,81.1,77.7,69.3,75.0,72.6,65.7,96,85,73,29.88,29.69,31,10,31,0.62
2012-10-26,78.0,72.8,67.6,72.4,69.2,64.8,97,89,72,29.70,29.50,37,12,37,0.54
2012-10-27,72.8,70.3,68.4,68.4,64.5,62.7,97,82,76,29.64,29.42,27,12,30,0.18
2012-10-28,77.0,70.3,60.3,65.6,61.3,55.7,89,74,58,29.76,29.63,24,8,24,0.00
2012-10-29,69.2,59.6,51.8,55.7,46.2,33.3,89,64,27,29.84,29.71,23,7,23,0.00
2012-10-30,68.7,57.2,48.6,48.9,43.3,34.0,90,62,37,29.96,29.81,27,7,27,0.00
2012-10-31,71.1,60.0,48.4,53.6,49.5,42.8,96,71,46,30.06,29.95,17,5,20,0.00
2012-11-1,77.0,66.5,55.7,63.9,59.1,52.3,91,78,58,30.04,29.92,19,5,19,0.00
2012-11-2,73.5,65.0,56.9,60.3,54.5,47.1,98,72,41,30.09,30.00,13,2,13,0.00
2012-11-3,78.5,66.2,53.0,65.6,58.9,51.2,94,79,52,30.13,30.04,11,2,11,0.00
2012-11-4,80.6,69.8,59.8,67.1,63.2,58.4,96,80,56,30.11,29.98,13,2,13,0.00
2012-11-5,78.7,69.6,62.0,67.9,64.6,60.6,96,85,59,30.00,29.90,11,2,11,0.00
2012-11-6,78.0,69.8,62.2,65.3,63.0,58.5,96,80,57,29.93,29.80,16,3,16,0.00
2012-11-7,67.0,60.5,52.7,61.0,51.8,47.0,96,75,52,29.98,29.82,27,5,27,0.00
2012-11-8,65.8,57.7,50.3,52.4,48.1,42.3,89,71,47,30.14,29.96,21,6,21,0.00
2012-11-9,70.5,59.6,52.5,56.9,50.6,46.1,81,72,61,30.23,30.12,21,5,21,0.00
2012-11-10,74.5,71.7,61.1,61.8,57.4,54.7,83,61,54,30.28,30.18,17,6,17,0.00
2012-11-11,78.0,74.2,69.6,66.8,63.7,55.7,82,70,58,30.27,30.20,21,6,21,0.01
2012-11-12,78.6,74.8,70.9,70.9,68.1,66.0,92,80,72,30.22,30.12,18,4,18,0.02
2012-11-13,78.5,72.8,65.8,70.8,68.1,64.0,95,86,73,30.16,30.07,17,2,17,0.11
2012-11-14,78.7,71.4,66.1,71.0,67.5,65.3,98,88,70,30.14,30.06,15,2,15,0.06
2012-11-15,73.6,66.7,61.4,69.4,64.8,60.3,99,94,82,30.11,30.04,18,3,18,0.01
2012-11-16,73.5,66.6,60.2,66.7,63.6,59.3,99,91,78,30.11,30.04,22,6,22,1.27
2012-11-17,76.3,70.6,65.0,68.4,65.4,62.6,99,84,71,30.11,30.04,25,5,25,0.24
2012-11-18,73.1,68.1,60.6,66.9,63.8,57.0,98,86,76,30.15,30.04,27,8,27,0.00
2012-11-19,61.8,58.7,55.4,59.2,56.9,54.3,96,94,90,30.13,30.01,16,4,16,0.00
2012-11-20,71.5,63.6,58.0,64.7,60.2,56.6,96,89,77,30.03,29.94,25,7,25,0.00
2012-11-21,70.2,62.6,56.5,61.1,56.5,49.8,96,81,64,30.03,29.95,24,7,24,0.00
2012-11-22,68.3,60.0,54.9,56.5,51.5,47.5,86,74,54,30.13,30.00,28,8,28,0.00
2012-11-23,71.8,61.2,51.7,57.2,52.3,47.6,88,73,58,30.16,30.06,17,4,17,0.00
2012-11-24,73.8,60.3,47.7,61.3,54.7,45.9,95,83,55,30.10,29.98,16,2,16,0.00
2012-11-25,70.3,60.6,49.9,57.8,53.9,46.8,92,80,58,30.14,30.05,13,2,13,0.00
2012-11-26,74.7,67.4,57.8,66.1,62.3,56.7,96,84,69,30.21,30.12,10,2,10,0.00
2012-11-27,76.7,70.8,64.7,67.5,64.4,62.0,92,81,68,30.19,30.08,14,2,14,0.00
2012-11-28,72.8,65.6,58.8,66.7,62.3,57.7,96,90,78,30.21,30.09,22,6,22,0.00
2012-11-29,73.8,69.2,58.8,64.7,61.9,57.6,98,78,68,30.25,30.17,20,6,20,0.00
2012-11-30,75.3,70.7,62.6,63.7,61.0,58.5,88,71,62,30.24,30.15,19,5,19,0.00
2012-12-1,76.8,70.2,61.0,66.6,63.1,58.0,91,79,63,30.22,30.14,23,6,23,0.03
2012-12-2,76.9,70.8,64.7,68.5,65.4,63.2,98,84,67,30.25,30.17,14,4,21,0.44
2012-12-3,76.2,71.8,62.9,65.1,61.4,57.2,98,71,57,30.26,30.18,17,4,17,0.00
2012-12-4,75.8,71.5,62.2,66.5,60.2,54.9,87,68,52,30.26,30.15,18,4,18,0.00
2012-12-5,76.8,69.5,63.8,67.2,62.4,57.1,96,80,54,30.16,30.02,12,2,12,0.33
2012-12-6,75.1,69.1,64.4,70.4,66.6,61.1,99,92,82,30.02,29.92,15,2,15,0.60
2012-12-7,75.9,70.3,62.6,70.1,67.2,62.0,98,90,72,30.00,29.89,14,2,14,0.01
2012-12-8,76.7,71.9,65.5,71.9,69.1,64.7,99,91,81,30.06,29.96,17,3,17,0.86
2012-12-9,80.2,73.2,67.6,73.7,71.0,67.2,99,93,79,30.09,29.99,14,2,14,0.33
2012-12-10,82.5,71.8,68.9,76.5,70.8,68.1,99,97,78,30.00,29.86,10,2,17,0.63
2012-12-11,78.9,74.7,70.7,75.5,72.9,69.2,98,94,86,30.03,29.90,10,2,16,0.01
2012-12-12,81.0,74.7,70.0,74.9,72.0,68.9,99,92,76,30.08,30.00,15,2,15,0.12
2012-12-13,72.7,67.1,60.0,72.4,64.7,58.6,99,92,86,30.13,30.01,21,7,22,0.00
2012-12-14,74.8,66.7,60.4,66.3,63.2,59.4,98,89,67,30.15,30.07,22,6,22,0.15
2012-12-15,76.7,66.2,61.4,67.2,63.0,61.1,100,90,63,30.10,30.03,13,2,13,0.01
2012-12-16,76.2,69.6,63.2,71.7,67.1,62.0,98,92,80,30.06,29.96,17,3,17,0.17
2012-12-17,79.5,72.0,66.6,69.2,67.3,65.4,99,86,66,29.97,29.86,15,2,15,0.00
2012-12-18,81.8,71.1,60.4,71.6,65.9,55.9,99,85,66,30.01,29.88,13,4,18,0.00
2012-12-19,77.3,67.8,54.7,64.5,59.2,51.8,94,75,50,30.09,30.00,9,2,9,0.00
2012-12-20,77.8,71.4,64.9,69.4,65.2,61.5,92,81,64,30.10,29.94,18,4,18,0.00
2012-12-21,71.2,57.8,45.1,68.2,41.2,26.6,92,57,25,30.18,29.91,28,8,28,0.00
2012-12-22,63.6,50.8,40.3,35.5,27.5,22.2,69,43,21,30.25,30.17,16,5,16,0.00
2012-12-23,67.4,57.0,43.4,57.2,46.7,30.0,91,69,50,30.26,30.13,9,2,9,0.00
2012-12-24,74.4,65.2,57.6,60.4,57.2,52.8,92,77,56,30.13,29.97,15,2,15,0.00
2012-12-25,74.8,66.9,57.2,64.7,60.9,55.4,95,82,64,30.05,29.90,12,2,12,0.00
2012-12-26,81.5,69.4,54.3,70.5,63.9,51.3,93,83,63,29.98,29.77,28,7,28,0.00
2012-12-27,64.3,53.1,45.3,51.4,47.2,42.3,93,81,51,30.08,29.97,15,3,15,0.00
2012-12-28,72.7,63.8,47.5,69.7,58.5,42.4,97,83,65,30.09,29.94,14,3,14,0.09
2012-12-29,82.0,71.0,53.1,74.2,66.5,48.6,97,86,68,30.12,29.88,24,7,24,0.01
2012-12-30,64.6,55.7,42.7,55.4,48.7,37.6,87,78,68,30.30,30.12,19,7,19,0.00
2012-12-31,71.5,66.3,60.3,59.3,57.3,53.9,89,73,63,30.33,30.20,19,5,19,0.00
2013-1-1,76.0,67.1,57.4,64.9,61.0,55.3,95,81,66,30.20,30.05,17,3,17,0.00